{"data":{"norad_id":64509,"intl_designator":"2025-134K","name":"KUIPER-00049","alt_names":[],"object_type":"PAYLOAD","status":"ACTIVE","operator":null,"country":"US","launch_date":"2025-06-23","launch_site_code":"AFETR","launch_vehicle":null,"mission":null,"orbit_class":"UNKNOWN","rcs_meters":null,"size_class":null,"mass_kg":null,"dimensions":null,"purposes":[],"wikipedia_slug":null,"has_3d_model":false,"image_url":null,"decayed_at":null,"tle_current":{"epoch":"2026-05-24T23:28:32.686176Z","epoch_age_seconds":74030,"freshness":"FRESH","line1":"1 64509U 25134K   26144.97815609  .00004166  00000+0  57514-3 0  9992","line2":"2 64509  51.9007 250.6831 0000482 120.2460 239.8550 14.79934668 51445","mean_motion":14.79934668,"eccentricity":4.82e-5,"inclination_deg":51.9007,"raan_deg":250.6831,"arg_perigee_deg":120.246,"mean_anomaly_deg":239.855,"bstar":0.00057514,"rev_number":5144,"period_min":97.301592505163,"perigee_km":629.19259415034,"apogee_km":629.8681332842,"semimajor_km":7007.6673637173,"source":"CELESTRAK","updated_at":"2026-05-25T13:38:04.573629Z"}}}